Regional Weather Roundup
Issued by NWS Sioux Falls, SD

Home | Current Version | Previous Version | Graphics & Text | Print | Product List | Glossary On
Versions: 1 2 3 4 5 6 7 8 9 10 11 12 13 14 15 16 17 18 19 20 21 22 23 24 25 26 27 28 29 30 31 32 33 34 35 36 37 38 39 40 41 42 43 44 45 46 47 48 49 50
000
ASUS43 KFSD 041602
RWRFSD

WEATHER ROUNDUP FOR SE SOUTH DAKOTA/SW MINNESOTA/NW IOWA
NATIONAL WEATHER SERVICE SIOUX FALLS SD
1100 AM CDT TUE AUG 04 2015

NOTE: "FAIR" INDICATES FEW OR NO CLOUDS BELOW 12,000 FEET WITH NO
SIGNIFICANT WEATHER AND OR OBSTRUCTIONS TO VISIBILITY.


SDZ038>040-050-052>070-041700-
SOUTHEAST SOUTH DAKOTA

CITY           SKY/WX    TMP DP  RH WIND       PRES   REMARKS
BROOKINGS      CLOUDY    70  55  60 SE10      30.03F
CHAMBERLAIN    CLOUDY    68  64  88 S7        29.98R
HURON          PTSUNNY   74  65  73 E7        29.95F
MADISON        FAIR      68  63  83 SE7       30.02S
MITCHELL       CLOUDY    73  65  75 E12       29.95F
SIOUX FALLS    CLOUDY    73  61  65 SE9       30.00F
WINNER         FAIR      72  62  71 E5        29.96R
YANKTON        CLOUDY    70  64  83 SE10      29.96F
$$

MNZ071-072-080-081-089-090-097-098-041700-
SOUTHWEST MINNESOTA

CITY           SKY/WX    TMP DP  RH WIND       PRES   REMARKS
FAIRMONT       CLOUDY    73  48  40 CALM      30.04F
JACKSON        CLOUDY    73  50  43 E5        30.05F
LUVERNE        CLOUDY    72  55  56 SE7       30.02F
MARSHALL       PTSUNNY   75  52  43 S9        30.04F
MONTEVIDEO     MOSUNNY   79  63  57 SW5       30.03F
PIPESTONE      CLOUDY    70  54  56 SE8       30.03F
REDWOOD FALLS  PTSUNNY   75  52  44 SW8       30.02F
TRACY          CLOUDY    73  55  53 S7        30.04S
WINDOM         CLOUDY    73  52  46 CALM      30.04F
WORTHINGTON    PTSUNNY   70  54  56 E6        30.04F
$$

IAZ001>003-012>014-020>022-031-032-NEZ013-014-SDZ071-041700-
NORTHWEST IOWA

CITY           SKY/WX    TMP DP  RH WIND       PRES   REMARKS
DENISON        CLOUDY    72  64  78 SE5       30.04R
ESTHERVILLE      N/A     72  55  55 E5        30.04F
LE MARS        CLOUDY    72  64  78 SE7       30.04R
ORANGE CITY    CLOUDY    70  57  64 E5        30.03S
SIOUX CITY     CLOUDY    71  64  78 S7        30.03R
SPENCER        CLOUDY    72  55  55 SE9       30.04F
$$

ABBREVIATIONS USED IN REMARKS
   TC - TEMPERATURE IN CELSIUS
  WCI - WIND CHILL INDEX
   HX - HEAT INDEX
  VSB - VISIBILITY




USA.gov is the U.S. government's official web portal to all federal, state and local government web resources and services.